Station: Hindmarsh Island  

  Atmospheric Gas Attenuation - ITU Rec 676-11   ----------------- dB/100km -----------------
Date Time Temp RH % AH g/m3 Dew Point Wind Direction Speed kph Gust kph Barometer mB Rainfall Since 9am 24GHz 47GHz 76GHz 122GHz 134GHz 241GHz
08/05 18:50 14 91 10.98 12.6 32 35 1029.6 1.2 24.6 30.5 50.5 132.7 132.6 457.7
08/05 18:40 14 93 11.22 12.9 22 24 1029.7 1.2 25.2 30.9 51.6 135.6 136.0 470.0
08/05 18:30 13.9 93 11.15 12.8 28 33 1029.7 1.2 25.0 30.8 51.3 134.9 135.2 467.0
08/05 18:20 13.7 94 11.13 12.8 32 35 1029.7 1.2 25.0 30.9 51.4 135.0 135.3 467.2
08/05 18:10 13.8 94 11.2 12.9 26 28 1029.6 1.2 25.1 31.0 51.6 135.7 136.1 470.1
08/05 18:00 13.9 94 11.27 13 32 35 1029.6 1.2 25.3 31.1 51.8 136.3 136.9 473.1
08/05 17:50 14.2 94 11.48 13.2 30 32 1029.5 1 25.7 31.3 52.6 138.3 139.5 481.9
08/05 17:40 14.2 94 11.48 13.2 26 28 1029.4 1 25.7 31.3 52.6 138.3 139.5 481.9
08/05 17:30 13.8 94 11.2 12.9 24 32 1029.4 1 25.1 31.0 51.6 135.7 136.1 470.1
08/05 17:20 14 94 11.34 13.1 30 35 1029.4 1 25.4 31.1 52.1 137.0 137.8 476.0
08/05 17:10 14.1 93 11.29 13 28 30 1029.4 0.6 25.3 31.0 51.8 136.2 136.9 472.8
08/05 17:00 14.1 91 11.04 12.7 30 39 1029.3 0.2 24.8 30.6 50.7 133.2 133.2 460.1
08/05 16:50 14.2 92 11.23 12.9 26 30 1029.3 0 25.2 30.9 51.4 135.3 135.8 469.1
08/05 16:40 14.5 91 11.32 13 32 37 1029.2 0 25.3 30.9 51.6 135.8 136.6 471.8
08/05 16:30 14.5 90 11.19 12.9 24 28 1029.3 0 25.1 30.7 51.1 134.3 134.7 465.3
08/05 16:20 14.6 88 11.01 12.6 24 28 1029.4 0 24.7 30.3 50.2 132.0 131.9 455.6
08/05 16:10 15.7 80 10.7 12.3 35 43 1029.1 0 23.9 29.4 48.2 126.6 125.6 433.9
08/05 16:00 14.9 84 10.71 12.2 24 32 1029.2 0 24.0 29.7 48.7 128.0 127.1 438.9
08/05 15:50 14.9 82 10.45 11.9 32 35 1029.1 0 23.5 29.2 47.6 125.1 123.4 426.1
08/05 15:40 15.4 82 10.77 12.3 26 30 1029.1 0 24.1 29.6 48.7 127.9 127.1 439.0
08/05 15:30 16.1 76 10.42 11.9 30 35 1029 0 23.3 28.8 46.7 122.8 121.1 418.1
08/05 15:20 16.5 72 10.11 11.4 28 32 1028.9 0 22.6 28.1 45.2 118.7 116.2 401.1
08/05 15:10 16.7 76 10.8 12.5 24 28 1029 0 24.1 29.2 48.0 126.1 125.4 433.1
08/05 15:00 16.6 76 10.74 12.4 28 37 1028.9 0 24.0 29.2 47.8 125.6 124.7 430.7
08/05 14:50 15.8 78 10.5 12 28 35 1028.9 0 23.5 29.0 47.3 124.2 122.7 423.5
08/05 14:40 16.5 78 10.95 12.7 28 30 1028.9 0 24.4 29.6 48.7 128.1 127.8 441.5
08/05 14:30 15.6 85 11.3 13.1 22 28 1029 0 25.2 30.5 50.8 133.6 134.3 464.0
08/05 14:20 15.4 84 11.04 12.7 22 26 1029.1 0 24.7 30.1 49.8 131.0 130.9 452.3
08/05 14:10 17.1 77 11.21 13 26 30 1029.1 0 24.9 29.8 49.5 130.1 130.4 450.8
08/05 14:00 16.3 78 10.82 12.5 26 32 1029.1 0 24.2 29.4 48.3 127.0 126.3 436.4
08/05 13:50 15.9 81 10.97 12.6 30 33 1029.2 0 24.5 29.8 49.2 129.4 129.1 446.0
08/05 13:40 15.5 78 10.31 11.7 30 33 1029.3 0 23.1 28.8 46.7 122.5 120.6 416.1
08/05 13:30 16.6 77 10.88 12.6 28 37 1029.2 0 24.3 29.4 48.4 127.2 126.7 437.6
08/05 13:20 16.3 79 10.96 12.7 26 30 1029.4 0 24.5 29.7 48.9 128.6 128.3 443.3
08/05 13:10 15.1 83 10.71 12.2 28 32 1029.5 0 24.0 29.6 48.6 127.7 126.8 437.9
08/05 13:00 15.1 87 11.22 13 30 41 1029.5 0 25.1 30.5 50.8 133.6 134.1 463.2
08/05 12:50 14.6 89 11.14 12.8 33 37 1029.6 0 25.0 30.6 50.8 133.6 133.8 462.2
08/05 12:40 15.3 87 11.36 13.1 32 35 1029.8 0 25.4 30.7 51.3 135.0 135.8 469.1
08/05 12:30 15.7 86 11.51 13.4 28 35 1030 0 25.7 30.9 51.7 136.0 137.2 474.3
08/05 12:20 16.4 79 11.03 12.8 32 35 1030 0 24.6 29.8 49.2 129.3 129.2 446.3
08/05 12:10 15.8 83 11.17 12.9 30 33 1030.2 0 24.9 30.2 50.2 131.9 132.2 456.8
08/05 12:00 16.3 80 11.1 12.8 28 39 1030.2 0 24.8 29.9 49.6 130.3 130.4 450.4
08/05 11:50 15.3 81 10.58 12.1 30 32 1030.3 0 23.7 29.4 48.0 126.0 124.7 430.6
08/05 11:40 16.3 81 11.24 13 39 43 1030.3 0 25.1 30.2 50.2 131.9 132.3 457.4
08/05 11:30 16 77 10.49 12 30 39 1030.5 0 23.5 29.0 47.2 123.9 122.4 422.5
08/05 11:20 16.5 75 10.53 12.1 28 32 1030.5 0 23.5 28.9 47.0 123.6 122.1 421.7
08/05 11:10 16 78 10.63 12.2 33 37 1030.6 0 23.8 29.3 47.8 125.5 124.3 429.3
08/05 11:00 16 80 10.9 12.6 35 43 1030.6 0 24.4 29.7 48.9 128.6 128.1 442.5
08/05 10:50 15.6 80 10.64 12.2 39 43 1030.6 0 23.8 29.4 48.1 126.3 125.1 432.0
08/05 10:40 15.4 79 10.38 11.8 35 41 1030.7 0 23.3 29.0 47.1 123.6 121.8 420.4
08/05 10:30 15.6 81 10.77 12.4 35 43 1030.6 0 24.1 29.6 48.6 127.7 126.9 438.4
08/05 10:20 15.1 87 11.22 13 37 41 1030.5 0 25.1 30.6 50.9 133.8 134.2 463.6
08/05 10:10 14.5 89 11.07 12.7 30 32 1030.7 0 24.8 30.5 50.6 133.1 133.1 459.7
08/05 10:00 15 89 11.41 13.2 33 41 1030.6 0 25.5 31.0 51.8 136.2 137.1 473.8
08/05 09:50 14.9 91 11.6 13.4 33 37 1030.5 0 25.9 31.3 52.7 138.6 140.0 484.0
08/05 09:40 14.9 87 11.09 12.8 37 43 1030.4 0 24.8 30.4 50.4 132.6 132.7 458.2
08/05 09:30 15.2 87 11.29 13.1 33 41 1030.5 0 25.2 30.7 51.1 134.4 135.0 466.5
08/05 09:20 14.7 89 11.21 12.9 32 32 1030.5 0 25.1 30.7 51.1 134.3 134.7 465.5
08/05 09:10 14.9 91 11.6 13.4 32 35 1030.4 0 25.9 31.3 52.7 138.6 140.0 484.0
08/05 09:00 14.4 92 11.37 13.1 30 41 1030.4 0 25.5 31.1 52.0 136.7 137.6 475.4
08/05 08:50 14.1 91 11.04 12.7 33 37 1030.3 0.4 24.8 30.6 50.7 133.4 133.3 460.4
08/05 08:40 14.4 91 11.25 13 28 32 1030.3 0.4 25.2 30.9 51.5 135.3 135.8 469.3
08/05 08:30 14.2 90 10.99 12.6 33 41 1030.3 0.2 24.7 30.5 50.4 132.6 132.4 457.3
08/05 08:20 14.3 92 11.3 13 26 30 1030.2 0.2 25.3 31.0 51.7 136.1 136.7 472.4
08/05 08:10 14.1 91 11.04 12.7 26 28 1030.1 0.2 24.8 30.6 50.7 133.3 133.3 460.4
08/05 08:00 14.1 90 10.92 12.5 30 39 1030.1 0.2 24.5 30.4 50.2 131.9 131.6 454.3
08/05 07:50 14.2 87 10.62 12.1 26 32 1030 0 23.9 29.8 48.8 128.3 127.1 438.7
08/05 07:40 14.6 82 10.26 11.6 33 39 1029.7 0 23.1 29.0 47.0 123.4 121.3 418.6
08/05 07:30 14.8 79 10.01 11.2 32 46 1029.5 0 22.5 28.5 45.8 120.3 117.5 405.3
08/05 07:20 14.6 82 10.26 11.6 35 37 1029.5 0 23.1 29.0 47.0 123.4 121.3 418.5
08/05 07:10 15 79 10.13 11.4 37 41 1029.3 0 22.8 28.7 46.2 121.3 118.8 410.0
08/05 07:00 15.2 75 9.73 10.8 35 44 1029.1 0 21.9 27.9 44.4 116.5 113.0 389.7
08/05 06:50 15.2 74 9.6 10.6 33 37 1029.2 0 21.6 27.7 43.9 115.1 111.3 383.5
08/05 06:40 15 77 9.87 11 28 33 1029.1 0 22.2 28.2 45.1 118.4 115.2 397.4
08/05 06:30 14.8 79 10.01 11.2 33 46 1029 0 22.5 28.5 45.8 120.2 117.5 405.1
08/05 06:20 15.1 75 9.68 10.7 32 39 1029 0 21.8 27.9 44.2 116.1 112.5 387.8
08/05 06:10 15 72 9.23 10 28 32 1028.9 0 20.9 27.2 42.4 111.3 106.5 366.9
08/05 06:00 14.9 73 9.3 10.1 30 39 1028.8 0 21.0 27.3 42.8 112.2 107.6 370.6
08/05 05:50 15 71 9.1 9.8 32 37 1028.8 0 20.6 26.9 41.9 109.9 104.8 360.8
08/05 05:40 15.1 72 9.29 10.1 35 43 1028.7 0 21.0 27.2 42.6 111.8 107.2 369.2
08/05 05:30 15 73 9.36 10.2 32 43 1028.8 0 21.1 27.4 43.0 112.7 108.3 373.0
08/05 05:20 15.1 71 9.16 9.9 35 39 1028.9 0 20.7 27.0 42.1 110.4 105.4 363.2
08/05 05:10 14.9 73 9.3 10.1 35 41 1028.8 0 21.0 27.3 42.8 112.2 107.6 370.6
08/05 05:00 15 73 9.36 10.2 32 41 1028.9 0 21.1 27.4 43.0 112.7 108.3 373.0
08/05 04:50 14.9 75 9.56 10.5 35 39 1028.9 0 21.6 27.7 43.8 115.0 111.1 383.0
08/05 04:40 15.1 75 9.68 10.7 33 37 1028.8 0 21.8 27.9 44.2 116.1 112.5 387.7
08/05 04:30 14.9 76 9.69 10.7 26 32 1028.8 0 21.8 27.9 44.4 116.5 112.9 389.2
08/05 04:20 14.8 76 9.63 10.6 28 32 1028.8 0 21.7 27.9 44.2 116.0 112.2 386.8
08/05 04:10 15 75 9.62 10.6 26 30 1028.8 0 21.7 27.8 44.0 115.6 111.8 385.3
08/05 04:00 15 70 8.98 9.6 32 41 1028.9 0 20.3 26.7 41.4 108.6 103.2 355.2
08/05 03:50 15 66 8.46 8.7 35 39 1028.9 0 19.2 25.9 39.3 103.0 96.3 331.2
08/05 03:40 14.9 70 8.92 9.5 37 43 1028.8 0 20.2 26.7 41.2 108.0 102.5 352.8
08/05 03:30 15.1 68 8.77 9.2 35 46 1028.8 0 19.9 26.4 40.5 106.2 100.3 345.0
08/05 03:20 15.1 72 9.29 10.1 32 37 1028.9 0 21.0 27.2 42.6 111.8 107.2 369.3
08/05 03:10 15.1 71 9.16 9.9 33 39 1028.8 0 20.7 27.0 42.1 110.4 105.4 363.1
08/05 03:00 15 72 9.23 10 33 43 1029 0 20.9 27.2 42.4 111.3 106.5 366.9
08/05 02:50 15.1 72 9.29 10.1 35 39 1029 0 21.0 27.2 42.6 111.8 107.2 369.3
08/05 02:40 15 73 9.36 10.2 32 33 1029 0 21.1 27.4 43.0 112.7 108.3 373.1
08/05 02:30 15.1 70 9.03 9.7 33 43 1028.9 0 20.4 26.8 41.6 109.0 103.7 357.1
08/05 02:20 14.9 72 9.18 9.9 35 41 1028.9 0 20.8 27.1 42.3 110.9 106.0 365.0

Last Refresh: 08-May-2026 18:57:01

Bureau of Meteorology